[[{"header":{"parameterUnit":"m.s-1","parameterCategory":1,"la1":30.2991,"la2":30.254,"lo1":-89.0895,"lo2":-89.0444,"dy":0.0017,"dx":0.0017,"nx":28,"ny":28,"refTime":"2024-06-05T03:00:00:Z","depth":0,"parameterNumber":2,"parameterNumberName":"U-component_of_WINDS"},"data":[0,0,0,0,0,0,0,0,0,0,0,0,0,0,0,0,0,0,0,0,0,0,0,0,0,0,0,0,0,0,0,0,0,0,0,0,0,0,0,0,0,0,0,0,0,0,0,0,0,0,0,0,0,0,0,0,0,0,0.4887,0.4887,0,0.4861,0.4861,0.4861,0.4836,0.4836,0.4835,0.4835,0.4808,0.4807,0.4807,0,0,0,0,0,0,0,0,0,0,0,0,0,0.4914,0.4913,0.4887,0.4887,0.4887,0.4861,0.4861,0.486,0.4836,0.4836,0.4835,0.4835,0.4808,0.4807,0.4807,0,0,0,0,0,0,0,0,0,0,0,0,0,0.4896,0.4913,0.4887,0.4871,0.487,0.4861,0.4861,0.486,0.4836,0.4836,0.4835,0.4835,0.4808,0.4807,0.4807,0.4812,0,0,0.4805,0.4804,0,0,0,0,0,0,0,0,0.4897,0.4895,0.4874,0.4872,0.4871,0.4851,0.486,0.4844,0.4836,0.4849,0.4835,0.4834,0.4822,0.4821,0.4817,0.481,0.4809,0.4804,0.4804,0.4804,0.4804,0,0,0,0,0,0,0,0.4899,0.4896,0.4877,0.4874,0.4872,0.4865,0.4862,0.4857,0.4839,0.4848,0.4846,0.4843,0.4821,0.4817,0.4816,0.4809,0.4805,0.4804,0.4804,0.4803,0.4803,0.4803,0,0,0,0,0,0,0.4902,0.4898,0.4878,0.4876,0.4883,0.4865,0.4861,0.4858,0.4838,0.4835,0.4844,0.4842,0.4819,0.4817,0.4815,0.4818,0.4804,0.4803,0.4803,0.4802,0.4803,0.4803,0,0,0,0,0,0,0.4903,0.4901,0.4879,0.4886,0.4883,0.4865,0.4861,0.4858,0.4854,0.4835,0.4832,0.4843,0.4818,0.4816,0.4812,0.4816,0.4803,0.4802,0.4802,0.4802,0.4803,0.4825,0,0,0,0,0,0,0.4904,0.4901,0.4904,0.4887,0.4883,0.4877,0.4861,0.4858,0.4853,0.485,0.4834,0.4831,0.4818,0.4813,0.4811,0.4815,0.4802,0.4801,0.4802,0.4803,0.4824,0.4826,0.4828,0,0,0,0,0,0.4905,0.4911,0.4904,0.4902,0.4885,0.4878,0.4875,0.4861,0.4853,0.4855,0.4843,0.4831,0.4816,0.4813,0.4811,0.4815,0.4801,0.4802,0.4803,0.4823,0.4826,0.4828,0,0,0,0,0,0,0.493,0.4909,0.4901,0.4902,0.4892,0.4874,0.4875,0.4865,0.4856,0.4855,0.4836,0.4833,0.4831,0.4822,0.4819,0.4817,0.4807,0.4807,0.4823,0.4825,0.4828,0.4829,0.4801,0,0,0,0,0,0.4935,0.4931,0.4913,0.4916,0.4911,0.4894,0.489,0.488,0.4868,0.4864,0.4852,0.4841,0.4833,0.4829,0.4822,0.4822,0.4817,0.4824,0.4826,0.4828,0.4828,0.4826,0.4828,0.4806,0.4806,0.4806,0,0,0.4947,0.4935,0.4934,0.492,0.4911,0.4907,0.4891,0.4887,0.4883,0.4863,0.4859,0.4849,0.4836,0.4834,0.4832,0.4827,0.4833,0.4829,0.4831,0.483,0.4827,0.4829,0.4831,0.4807,0.4806,0.4806,0,0,0.4965,0.4957,0.4957,0.4948,0.4934,0.4922,0.4922,0.4905,0.4898,0.4893,0.4878,0.4872,0.4861,0.4851,0.4845,0.4857,0.4846,0.4855,0.4867,0.4865,0.4866,0.4868,0.4871,0.4872,0.4856,0.4856,0.4856,0,0.4981,0.4974,0.4958,0.4955,0.4948,0.493,0.4929,0.4921,0.4906,0.4901,0.4895,0.4879,0.4869,0.4863,0.4866,0.4862,0.486,0.4857,0.4868,0.4869,0.487,0.4872,0.4874,0.4857,0.4857,0.4857,0.4857,0,0.4993,0.4988,0.499,0.4975,0.4969,0.4967,0.495,0.4946,0.4935,0.4924,0.4918,0.4905,0.4893,0.4891,0.4881,0.4883,0.488,0.4871,0.486,0.4873,0.4875,0.4876,0.4859,0.4858,0.4858,0.4858,0,0,0.5027,0.5002,0.5003,0.4995,0.4978,0.4973,0.4969,0.4958,0.4954,0.4943,0.4939,0.4928,0.4919,0.4912,0.49,0.4899,0.4907,0.489,0.4889,0.4892,0.4907,0.4913,0.4915,0.4899,0.49,0.49,0.4908,0,0.5041,0.5034,0.5019,0.5016,0.501,0.4992,0.4988,0.4977,0.4966,0.4958,0.4946,0.4938,0.4928,0.4923,0.492,0.4907,0.491,0.4906,0.4894,0.4894,0.4897,0.4916,0.4923,0.4931,0.4908,0.4909,0.4909,0,0.5057,0.5047,0.5044,0.5025,0.5022,0.5019,0.5006,0.5,0.4986,0.4978,0.4969,0.4956,0.4949,0.494,0.493,0.4928,0.4922,0.4914,0.4914,0.4912,0.4902,0.4913,0.4934,0.4934,0.491,0.491,0.491,0,0.508,0.5066,0.5062,0.5056,0.5034,0.5032,0.5023,0.5008,0.5002,0.499,0.4986,0.4974,0.4967,0.4958,0.4941,0.4936,0.4932,0.4922,0.4924,0.4925,0.4924,0.4924,0.4943,0.4922,0.4922,0.4922,0.4922,0,0.5097,0.5096,0.5071,0.5069,0.5065,0.5047,0.5044,0.5033,0.502,0.5014,0.4998,0.4992,0.4971,0.4962,0.4949,0.4942,0.494,0.4932,0.4928,0.4933,0.4934,0.4928,0.4927,0.4922,0.4922,0.4922,0.4922,0,0.5122,0.5106,0.51,0.508,0.5074,0.5073,0.5055,0.5051,0.5038,0.503,0.5028,0.5008,0.4997,0.4979,0.4964,0.4955,0.4949,0.4944,0.4954,0.4952,0.4955,0.4954,0.497,0.497,0.495,0.495,0.4951,0,0.5134,0.5132,0.5111,0.5106,0.5097,0.5089,0.5082,0.5064,0.5057,0.5039,0.5037,0.5025,0.5014,0.4997,0.498,0.4967,0.4961,0.4967,0.4959,0.4963,0.496,0.496,0.4959,0.4969,0.4969,0.497,0.497,0,0.5155,0.5147,0.5138,0.5125,0.5117,0.5106,0.5095,0.5091,0.507,0.5063,0.5051,0.5043,0.5026,0.5013,0.4998,0.4987,0.4975,0.4973,0.4972,0.4977,0.4982,0.4978,0.4958,0.4972,0.4972,0.4972,0.4972,0.4972,0.5173,0.5169,0.5154,0.5143,0.5133,0.5122,0.5116,0.5103,0.5093,0.5078,0.5067,0.5056,0.504,0.5018,0.5008,0.4998,0.4993,0.4993,0.4992,0.4992,0.4993,0.4984,0.4995,0.4995,0.4995,0.4995,0.4995,0,0.5192,0.5181,0.5172,0.5155,0.5147,0.5136,0.5122,0.5115,0.5105,0.5092,0.5081,0.5067,0.5054,0.5036,0.5022,0.5018,0.5011,0.5014,0.5014,0.5011,0.5,0.5001,0.5019,0.5019,0.5019,0.5019,0.5019,0.5019,0.5201,0.5194,0.5184,0.5171,0.516,0.5149,0.5141,0.5131,0.5119,0.5104,0.5094,0.5082,0.5066,0.505,0.5038,0.5033,0.5028,0.5032,0.5025,0.5015,0.5013,0.501,0.5011,0.5032,0.5032,0.5038,0.5038,0.5038]},{"header":{"parameterUnit":"m.s-1","parameterCategory":1,"la1":30.2991,"la2":30.254,"lo1":-89.0895,"lo2":-89.0444,"dy":0.0017,"dx":0.0017,"nx":28,"ny":28,"refTime":"2024-06-05T03:00:00:Z","depth":0,"parameterNumber":3,"parameterNumberName":"V-component_of_WINDS"},"data":[0,0,0,0,0,0,0,0,0,0,0,0,0,0,0,0,0,0,0,0,0,0,0,0,0,0,0,0,0,0,0,0,0,0,0,0,0,0,0,0,0,0,0,0,0,0,0,0,0,0,0,0,0,0,0,0,0,0,4.8128,4.813,0,4.8247,4.8248,4.8249,4.8214,4.8212,4.8209,4.8207,4.8323,4.8329,4.8334,0,0,0,0,0,0,0,0,0,0,0,0,0,4.7867,4.7872,4.8128,4.813,4.8131,4.8246,4.8248,4.825,4.8215,4.8212,4.8209,4.8206,4.8322,4.8328,4.8334,0,0,0,0,0,0,0,0,0,0,0,0,0,4.7982,4.7873,4.8128,4.8128,4.8129,4.8246,4.8248,4.825,4.8215,4.8212,4.8208,4.8205,4.832,4.8327,4.8335,4.8458,0,0,4.836,4.8363,0,0,0,0,0,0,0,0,4.7975,4.7992,4.8127,4.8128,4.813,4.8212,4.8198,4.832,4.8216,4.8183,4.8207,4.8203,4.8289,4.8299,4.8329,4.8464,4.8469,4.8361,4.8366,4.8369,4.8371,0,0,0,0,0,0,0,4.7967,4.7986,4.8175,4.8128,4.813,4.812,4.8132,4.8221,4.8255,4.8185,4.8183,4.8198,4.8289,4.8322,4.8332,4.847,4.836,4.8368,4.8373,4.8376,4.8708,4.8712,0,0,0,0,0,0,4.7959,4.798,4.8171,4.8178,4.8042,4.8128,4.8141,4.8189,4.8254,4.826,4.8201,4.8196,4.831,4.8323,4.8336,4.8482,4.8369,4.8377,4.8381,4.8704,4.8709,4.8713,0,0,0,0,0,0,4.7954,4.7977,4.8166,4.8079,4.8102,4.8136,4.819,4.8193,4.8226,4.8265,4.8271,4.8228,4.8307,4.8324,4.8428,4.8486,4.838,4.8387,4.8699,4.8705,4.8711,4.8777,0,0,0,0,0,0,4.7946,4.7975,4.8024,4.808,4.8107,4.8259,4.8194,4.8198,4.8241,4.8235,4.8293,4.8299,4.8306,4.8416,4.8436,4.8495,4.8394,4.8694,4.8702,4.8709,4.8769,4.8784,4.8797,0,0,0,0,0,4.7937,4.8037,4.8026,4.8049,4.8169,4.8262,4.8277,4.8285,4.8246,4.8293,4.8318,4.8297,4.8476,4.8427,4.8449,4.8511,4.8691,4.87,4.8708,4.8763,4.8781,4.8796,0,0,0,0,0,0,4.7985,4.8044,4.8033,4.8155,4.8204,4.8256,4.8317,4.8304,4.8364,4.8356,4.8362,4.8375,4.848,4.8506,4.845,4.8632,4.8577,4.8591,4.8611,4.8629,4.8642,4.8633,4.84,0,0,0,0,0,4.801,4.8083,4.813,4.8232,4.8257,4.8283,4.8324,4.8326,4.8376,4.8396,4.8428,4.8477,4.8543,4.8588,4.8652,4.8773,4.8783,4.8826,4.884,4.8851,4.8863,4.8926,4.8945,4.8743,4.8743,4.8742,0,0,4.8062,4.8103,4.8149,4.8243,4.8281,4.8354,4.8301,4.8381,4.8434,4.8408,4.8507,4.8532,4.8586,4.8698,4.8749,4.8723,4.8921,4.8862,4.8871,4.8877,4.8937,4.8957,4.8974,4.8749,4.8748,4.8747,0,0,4.8194,4.8233,4.8322,4.8361,4.842,4.8436,4.8457,4.8511,4.8527,4.8627,4.8609,4.8671,4.8787,4.8825,4.886,4.9004,4.8986,4.9025,4.9096,4.9158,4.9174,4.9188,4.9237,4.9255,4.9036,4.9036,4.9036,0,4.8251,4.8362,4.8369,4.845,4.8491,4.8471,4.856,4.8597,4.8673,4.87,4.867,4.8814,4.8849,4.8969,4.9004,4.9033,4.9055,4.9018,4.9171,4.9185,4.9199,4.9246,4.9265,4.9041,4.904,4.904,4.9039,0,4.8427,4.8504,4.8569,4.8643,4.8691,4.8776,4.8794,4.8841,4.8838,4.8856,4.8956,4.8998,4.9069,4.9097,4.9095,4.9216,4.9198,4.917,4.9115,4.9222,4.9266,4.9285,4.9047,4.9045,4.9044,4.9043,0,0,4.8594,4.8671,4.8694,4.8727,4.8789,4.8847,4.8929,4.9,4.9039,4.9092,4.9159,4.9257,4.923,4.927,4.9271,4.9326,4.9435,4.929,4.9291,4.9314,4.9568,4.9589,4.961,4.9423,4.9426,4.9429,4.9563,0,4.873,4.8877,4.8884,4.9016,4.9086,4.9067,4.9138,4.9182,4.9201,4.9261,4.9281,4.935,4.9311,4.9334,4.9387,4.941,4.9485,4.9401,4.9484,4.9487,4.947,4.9634,4.9656,4.9781,4.9581,4.9584,4.9586,0,4.8909,4.8967,4.9107,4.9157,4.9186,4.925,4.9314,4.9373,4.9421,4.9431,4.9474,4.9467,4.9549,4.9491,4.9602,4.9545,4.9579,4.9595,4.96,4.9607,4.9543,4.9644,4.9821,4.9839,4.9614,4.9612,4.961,0,4.9014,4.9128,4.9225,4.9254,4.9315,4.936,4.9388,4.9433,4.9474,4.9529,4.9556,4.9619,4.9654,4.9702,4.9711,4.9669,4.9822,4.9766,4.983,4.983,4.9863,4.9861,5.0047,4.9887,4.9887,4.9886,4.9886,0,4.9165,4.9251,4.9273,4.9333,4.9427,4.9434,4.9526,4.955,4.9591,4.9653,4.964,4.9698,4.9708,4.9768,4.9775,4.9865,4.9881,4.9889,4.989,4.989,4.9889,4.9912,4.9903,4.9891,4.989,4.9889,4.9888,0,4.9299,4.9318,4.9423,4.9472,4.9486,4.9553,4.9594,4.965,4.9667,4.9746,4.9765,4.9791,4.986,4.9874,4.9957,4.9962,5.0068,5.006,5.0052,5.0051,5.0114,5.0108,5.0321,5.0349,5.0171,5.0173,5.0174,0,4.9394,4.9459,4.9515,4.9557,4.9586,4.9653,4.9695,4.9703,4.9747,4.9806,4.9855,4.9923,4.9978,5.009,5.0115,5.0177,5.017,5.0241,5.0179,5.0177,5.017,5.0165,5.0171,5.0252,5.0254,5.0256,5.0257,0,4.9559,4.9565,4.9626,4.9691,4.9741,4.9792,4.984,4.9874,4.9888,4.9938,5.0009,5.0052,5.0136,5.0203,5.0265,5.029,5.0276,5.0276,5.0294,5.0294,5.0286,5.029,5.0083,5.0271,5.027,5.0269,5.0268,5.0267,4.9676,4.9732,4.978,4.9848,4.9885,4.993,4.9985,5.0008,5.0068,5.0138,5.0138,5.0216,5.026,5.0342,5.0372,5.0431,5.0409,5.0435,5.0442,5.0448,5.0453,5.0277,5.0442,5.0442,5.0442,5.0441,5.0441,0,4.9839,4.9869,4.9931,4.9999,5.0052,5.0035,5.0086,5.0131,5.02,5.0244,5.0298,5.0379,5.0443,5.0473,5.0536,5.0578,5.0572,5.0594,5.0591,5.0596,5.047,5.0448,5.0597,5.0597,5.0597,5.0597,5.0597,5.0597,4.9931,5.0024,5.0035,5.0146,5.0174,5.0251,5.0282,5.0322,5.0357,5.0448,5.0502,5.0521,5.0558,5.0624,5.0682,5.0688,5.0712,5.0736,5.074,5.0621,5.0605,5.059,5.0569,5.0742,5.0742,5.0861,5.0862,5.0863]}]]